Location: Arbon
(43.0005°N, 0.7472°E)
Time: 12:28:57
(UTC+00:00)

Vanguard 1 - Pass Details

Date: 26 November 2020
Orbit: 648 x 3834 km, 34.3° (Epoch: 23 January)

Event Time Altitude Azimuth Distance (km) Brightness Sun altitude
Rises 07:32:21 0° 256° (WSW) 4,086 12.8 3.7°
Reaches altitude 10° 07:34:39 10° 252° (WSW) 3,394 12.5 4.1°
Maximum altitude 07:43:21 56° 176° (S) 2,286 12.4 5.4°
Drops below altitude 10° 07:59:28 10° 105° (ESE) 6,010 15.6 7.7°
Sets 08:05:09 0° 102° (ESE) 7,423 15.8 8.5°
